TDRS 7

Last updated on Sat Aug 15 2026 00:02:52 GMT+0000 (Coordinated Universal Time)

1 23613U 95035B 26226.60891037 -.00000249 00000+0 00000+0 0 9993 2 23613 13.3126 347.7791 0012974 91.6741 191.7734 1.00265921113836
UTC large
Height (km)
Speed (km/s)
/
Latitude / Longitude
Inclination (degrees)
Orbital Period (minutes)
Azimuth
Elevation
Range (km)
Doppler Factor

Next 0 passes for location: London (51.5072 / 0.1276)

No passes found over London.
TDRS 7